Skip Page Navigation
NASA JPL Caltech
NASA Logo - Jet Propulsion Laboratory + View the NASA Portal
+ Center for Near-Earth Object Studies
JPL Home Earth Solar System Stars & Galaxies Technology
JPL Solar System Dynamics
BODIES ORBITS EPHEMERIDES TOOLS PHYSICAL DATA DISCOVERY FAQ SITE MAP
IMPORTANT: The SSD Announcement email list is now available. Major changes are coming in the near future, including possible hostname and/or URL changes. To be notified of such changes, subscribe to this email list.

Please visit this page for more details.


JPL Small-Body Database Browser
Search: [ help ]  
702 Alauda (A910 OA)
Classification: Main-belt Asteroid          SPK-ID: 2000702
Ephemeris | Orbit Diagram | Orbital Elements | Mission Design | Physical Parameters | Discovery Circumstances | Close-Approach Data ]

[ show orbit diagram ]
Orbital Elements at Epoch 2459000.5 (2020-May-31.0) TDB
Reference: JPL 94 (heliocentric ecliptic J2000)
 Element Value Uncertainty (1-sigma)   Units 
e .01710189783424776 3.247e-08  
a 3.193401486504806 1.1535e-08 au
q 3.138788260538866 1.0362e-07 au
i 20.60216745283642 3.63e-06 deg
node 289.7425773888339 9.2703e-06 deg
peri 351.9580416940792 9.7839e-05 deg
M 121.9105166019815 9.8024e-05 deg
tp 2458294.641933132240
(2018-Jun-25.14193313)
0.00056718 TDB
period 2084.388707022045
5.71
1.1294e-05
3.092e-08
d
yr
n .1727125074067064 9.3579e-10 deg/d
Q 3.248014712470746 1.1732e-08 au
  Orbit Determination Parameters
   # obs. used (total)      2977  
   data-arc span      39985 days (109.47 yr)  
   first obs. used      1910-07-17  
   last obs. used      2020-01-06  
   planetary ephem.      DE431  
   SB-pert. ephem.      SB431-N16  
   condition code      0  
   norm. resid. RMS      .42378  
   source      ORB  
   producer      Otto Matic  
   solution date      2020-Jan-28 17:37:35  

Additional Information
 Earth MOID = 2.12283 au 
 Jupiter MOID = 1.95013 au 
 T_jup = 3.096 
[ show covariance matrix ]

Ephemeris | Orbit Diagram | Orbital Elements | Mission Design | Physical Parameters | Discovery Circumstances | Close-Approach Data ]

Physical Parameter Table
Parameter Symbol Value Units Sigma Reference Notes
absolute magnitude H 7.3   n/a MPO492757 IRAS observations used: 26
diameter diameter 190.980 km 1.973 urn:nasa:pds:neowise_diameters_albedos::2.0[mainbelt] (http://adsabs.harvard.edu/abs/2012ApJ...759L...8M)  
rotation period rot_per 8.3531 h n/a LCDB (Rev. 2019-August); Warner et al., 2009 Result based on less than full coverage, so that the period may be wrong by 30 percent or so.
Published Reference List:
[Harris, A.W.; Young, J.W. (1983) Icarus 54, 59-109.]
[Fauerbach, M.; Bennett, T. (2005) Minor Planet Bull. 32, 80-81.]
[Benishek, V.; Protitch-Benishek, V. (2008) Minor Planet Bull. 35, 28-30.]
[Alkema, M.S. (2014) Minor Planet Bull. 41, 186-187.]
geometric albedo albedo 0.061   0.011 urn:nasa:pds:neowise_diameters_albedos::2.0[mainbelt] (http://adsabs.harvard.edu/abs/2012ApJ...759L...8M)  
B-V BV 0.665   0.022 EAR-A-5-DDR-UBV-MEAN-VALUES-V1.2 #obs=7; phase (min.=2.23, mean=6.88, max.=14.75) deg.
U-B UB 0.316   0.014 EAR-A-5-DDR-UBV-MEAN-VALUES-V1.2 #obs=7; phase (min.=2.23, mean=6.88, max.=14.75) deg.
Tholen spectral type spec_T C   n/a EAR-A-5-DDR-TAXONOMY-V4.0 used 7 color indices
SMASSII spectral type spec_B B   n/a EAR-A-5-DDR-TAXONOMY-V4.0 based on a high-resolution spectrum by Xu et al. (1995) or Bus and Binzel (2002)

702 Alauda (A910 OA)          Discovered 1910-Jul-16 by Helffrich, J. at Heidelberg
Reference: DISCOVERY.DBLast Updated: 2003-08-29

[ show close-approach data ]
Ephemeris | Orbit Diagram | Orbital Elements | Mission Design | Physical Parameters | Discovery Circumstances | Close-Approach Data ]
ABOUT SSD CREDITS/AWARDS PRIVACY/COPYRIGHT GLOSSARY LINKS
FirstGov 2020-Feb-21 22:14 UT
(server date/time)  
NASA Home Page
Site Manager:   Ryan S. Park
Webmaster  Alan B. Chamberlin